[[{"header":{"parameterUnit":"m.s-1","parameterCategory":1,"la1":30.2991,"la2":30.254,"lo1":-89.0895,"lo2":-89.0444,"dy":0.0017,"dx":0.0017,"nx":28,"ny":28,"refTime":"2023-07-28T21:00:00:Z","depth":0,"parameterNumber":2,"parameterNumberName":"U-component_of_WINDS"},"data":[0,0,0,0,0,0,0,0,0,0,0,0,0,0,0,0,0,0,0,0,0,0,0,0,0,0,0,0,0,0,0,0,0,0,0,0,0,0,0,0,0,0,0,0,0,0,0,0,0,0,0,0,0,0,0,0,0,0,-0.3426,-0.3425,0,-0.3283,-0.3281,-0.328,-0.3234,-0.3234,-0.3235,-0.3236,-0.3085,-0.3081,-0.3076,0,0,0,0,0,0,0,0,0,0,0,0,0,-0.3658,-0.3654,-0.3427,-0.3425,-0.3423,-0.3283,-0.3281,-0.3279,-0.3234,-0.3234,-0.3235,-0.3236,-0.3087,-0.3081,-0.3076,0,0,0,0,0,0,0,0,0,0,0,0,0,-0.354,-0.3653,-0.3427,-0.3383,-0.3378,-0.3284,-0.3281,-0.3279,-0.3233,-0.3234,-0.3235,-0.3236,-0.3089,-0.3082,-0.3075,-0.3012,0,0,-0.3054,-0.3051,0,0,0,0,0,0,0,0,-0.3547,-0.3532,-0.3392,-0.3386,-0.338,-0.3277,-0.3308,-0.3189,-0.3233,-0.3288,-0.3236,-0.3237,-0.3148,-0.3136,-0.3107,-0.3005,-0.2999,-0.3053,-0.3049,-0.3046,-0.3044,0,0,0,0,0,0,0,-0.3555,-0.3538,-0.337,-0.339,-0.3383,-0.337,-0.3355,-0.3285,-0.3214,-0.3284,-0.328,-0.3264,-0.3145,-0.3114,-0.3103,-0.2997,-0.3053,-0.3047,-0.3043,-0.304,-0.2837,-0.2835,0,0,0,0,0,0,-0.3571,-0.3545,-0.3374,-0.3365,-0.3468,-0.3365,-0.3348,-0.3309,-0.3215,-0.3202,-0.3263,-0.3262,-0.3125,-0.3111,-0.3098,-0.3018,-0.3046,-0.304,-0.3036,-0.2838,-0.2836,-0.2835,0,0,0,0,0,0,-0.3576,-0.3557,-0.338,-0.3454,-0.3431,-0.336,-0.3317,-0.3306,-0.3275,-0.3199,-0.3186,-0.3244,-0.3126,-0.3108,-0.3034,-0.3012,-0.3036,-0.303,-0.2839,-0.2837,-0.2836,-0.2859,0,0,0,0,0,0,-0.3583,-0.3559,-0.3535,-0.3454,-0.3427,-0.332,-0.3316,-0.3302,-0.3263,-0.3261,-0.3178,-0.3166,-0.3125,-0.3045,-0.3027,-0.3003,-0.3025,-0.2841,-0.2838,-0.2836,-0.286,-0.2858,-0.2857,0,0,0,0,0,-0.3592,-0.3546,-0.3534,-0.3513,-0.3396,-0.3319,-0.3303,-0.3258,-0.3262,-0.3237,-0.3189,-0.3168,-0.3018,-0.3038,-0.3018,-0.2991,-0.2842,-0.2839,-0.2836,-0.2861,-0.2859,-0.2857,0,0,0,0,0,0,-0.3625,-0.3535,-0.352,-0.3447,-0.3391,-0.3311,-0.3278,-0.3257,-0.3198,-0.3198,-0.3144,-0.3125,-0.3056,-0.3016,-0.304,-0.2926,-0.2929,-0.2922,-0.2954,-0.2952,-0.295,-0.2961,-0.3019,0,0,0,0,0,-0.3624,-0.357,-0.3494,-0.3437,-0.3409,-0.3349,-0.3313,-0.3284,-0.3223,-0.3199,-0.3145,-0.3086,-0.3025,-0.2986,-0.2927,-0.2854,-0.2836,-0.2826,-0.2825,-0.2824,-0.2818,-0.2777,-0.2772,-0.2826,-0.2826,-0.2826,0,0,-0.362,-0.3565,-0.3534,-0.3442,-0.3395,-0.3339,-0.3329,-0.327,-0.3228,-0.3189,-0.3117,-0.3076,-0.3006,-0.2934,-0.2899,-0.2898,-0.28,-0.282,-0.282,-0.2815,-0.2774,-0.2769,-0.2764,-0.2824,-0.2824,-0.2824,0,0,-0.3586,-0.3539,-0.3486,-0.344,-0.337,-0.333,-0.3318,-0.3241,-0.3212,-0.314,-0.3109,-0.3058,-0.2955,-0.2907,-0.2869,-0.2818,-0.2797,-0.28,-0.2791,-0.2752,-0.2748,-0.2744,-0.2726,-0.272,-0.2795,-0.2795,-0.2795,0,-0.3591,-0.3507,-0.3462,-0.3405,-0.3365,-0.3329,-0.3275,-0.3232,-0.3146,-0.3119,-0.312,-0.299,-0.2941,-0.2856,-0.2844,-0.2815,-0.2798,-0.2809,-0.2753,-0.2748,-0.2743,-0.2725,-0.2719,-0.2796,-0.2796,-0.2796,-0.2795,0,-0.3516,-0.3458,-0.3424,-0.3343,-0.3299,-0.3244,-0.319,-0.3152,-0.3126,-0.3086,-0.3013,-0.2952,-0.288,-0.2858,-0.2832,-0.277,-0.2772,-0.2763,-0.2765,-0.274,-0.2722,-0.2715,-0.2797,-0.2797,-0.2796,-0.2796,0,0,-0.3497,-0.3393,-0.3381,-0.3344,-0.3264,-0.3218,-0.3162,-0.3092,-0.306,-0.3002,-0.2952,-0.2867,-0.2859,-0.2816,-0.2784,-0.275,-0.2714,-0.2746,-0.2743,-0.2741,-0.2641,-0.2648,-0.264,-0.27,-0.2698,-0.2697,-0.2647,0,-0.3452,-0.335,-0.3309,-0.3226,-0.3172,-0.3138,-0.3088,-0.3034,-0.2995,-0.2943,-0.29,-0.284,-0.2835,-0.2809,-0.2773,-0.2726,-0.2693,-0.2729,-0.2652,-0.265,-0.267,-0.2631,-0.2637,-0.2592,-0.264,-0.2638,-0.2638,0,-0.3386,-0.3329,-0.3241,-0.3169,-0.3145,-0.3101,-0.3034,-0.2985,-0.2923,-0.2897,-0.285,-0.2821,-0.2759,-0.2767,-0.2681,-0.2707,-0.2673,-0.2645,-0.2642,-0.2633,-0.2642,-0.262,-0.2577,-0.257,-0.2626,-0.2627,-0.2628,0,-0.338,-0.3281,-0.3216,-0.3186,-0.31,-0.307,-0.3033,-0.2971,-0.2933,-0.2874,-0.2848,-0.2783,-0.2747,-0.2697,-0.2651,-0.266,-0.257,-0.2573,-0.2546,-0.2547,-0.2527,-0.2529,-0.2478,-0.2507,-0.2507,-0.2508,-0.2508,0,-0.3334,-0.3282,-0.3213,-0.3173,-0.3113,-0.3066,-0.3008,-0.2968,-0.2914,-0.2865,-0.2831,-0.2786,-0.2728,-0.2675,-0.2638,-0.2573,-0.2557,-0.2534,-0.2525,-0.2537,-0.254,-0.2513,-0.2515,-0.2506,-0.2506,-0.2506,-0.2507,0,-0.3317,-0.3269,-0.3196,-0.3122,-0.3102,-0.3061,-0.2997,-0.2956,-0.2917,-0.2855,-0.2838,-0.2776,-0.2712,-0.2661,-0.2577,-0.2553,-0.2484,-0.2474,-0.2505,-0.25,-0.2476,-0.2479,-0.2406,-0.2394,-0.2432,-0.2432,-0.2432,0,-0.3291,-0.325,-0.3171,-0.3137,-0.31,-0.3045,-0.3006,-0.2958,-0.2918,-0.2845,-0.2813,-0.2747,-0.2691,-0.2591,-0.2538,-0.2473,-0.2461,-0.244,-0.2451,-0.2465,-0.246,-0.2463,-0.2459,-0.2439,-0.2438,-0.2438,-0.2438,0,-0.3248,-0.3227,-0.3172,-0.3109,-0.3063,-0.3011,-0.2958,-0.2931,-0.2874,-0.2831,-0.2766,-0.2723,-0.2639,-0.2573,-0.2504,-0.2464,-0.2441,-0.2436,-0.2426,-0.2437,-0.2457,-0.2445,-0.2501,-0.2437,-0.2437,-0.2437,-0.2437,-0.2437,-0.3225,-0.3187,-0.3127,-0.3067,-0.3022,-0.2974,-0.2932,-0.2889,-0.2834,-0.2762,-0.2737,-0.267,-0.2609,-0.2514,-0.2474,-0.2421,-0.2419,-0.2405,-0.2401,-0.2398,-0.24,-0.2466,-0.2408,-0.2408,-0.2408,-0.2408,-0.2408,0,-0.318,-0.314,-0.3086,-0.3013,-0.2966,-0.2951,-0.2891,-0.2853,-0.2795,-0.2741,-0.2687,-0.2613,-0.255,-0.2492,-0.2426,-0.2395,-0.2383,-0.2379,-0.238,-0.2372,-0.2405,-0.242,-0.239,-0.239,-0.239,-0.239,-0.239,-0.239,-0.3152,-0.3087,-0.3059,-0.2972,-0.2932,-0.2867,-0.2835,-0.2789,-0.2746,-0.2665,-0.2613,-0.2576,-0.252,-0.2451,-0.2392,-0.2377,-0.2354,-0.2353,-0.2335,-0.2367,-0.2369,-0.2371,-0.2385,-0.2348,-0.2348,-0.2305,-0.2305,-0.2305]},{"header":{"parameterUnit":"m.s-1","parameterCategory":1,"la1":30.2991,"la2":30.254,"lo1":-89.0895,"lo2":-89.0444,"dy":0.0017,"dx":0.0017,"nx":28,"ny":28,"refTime":"2023-07-28T21:00:00:Z","depth":0,"parameterNumber":3,"parameterNumberName":"V-component_of_WINDS"},"data":[0,0,0,0,0,0,0,0,0,0,0,0,0,0,0,0,0,0,0,0,0,0,0,0,0,0,0,0,0,0,0,0,0,0,0,0,0,0,0,0,0,0,0,0,0,0,0,0,0,0,0,0,0,0,0,0,0,0,2.6134,2.6134,0,2.614,2.614,2.614,2.6197,2.6199,2.62,2.6201,2.6202,2.6201,2.62,0,0,0,0,0,0,0,0,0,0,0,0,0,2.6168,2.6167,2.6134,2.6134,2.6135,2.614,2.614,2.614,2.6197,2.6199,2.62,2.6202,2.6203,2.6201,2.62,0,0,0,0,0,0,0,0,0,0,0,0,0,2.6161,2.6167,2.6134,2.6164,2.6166,2.614,2.614,2.614,2.6196,2.6199,2.6201,2.6203,2.6203,2.6201,2.6199,2.6144,0,0,2.6193,2.6193,0,0,0,0,0,0,0,0,2.6162,2.616,2.6159,2.6162,2.6165,2.617,2.6153,2.6141,2.6196,2.6185,2.6201,2.6204,2.619,2.6189,2.6185,2.6144,2.6144,2.6193,2.6192,2.6191,2.6191,0,0,0,0,0,0,0,2.6162,2.616,2.6137,2.6159,2.6162,2.6175,2.6176,2.6151,2.6175,2.6186,2.619,2.619,2.6191,2.6187,2.6185,2.6144,2.6193,2.6191,2.619,2.619,2.6056,2.6054,0,0,0,0,0,0,2.6159,2.616,2.6136,2.6137,2.6169,2.6173,2.6174,2.6166,2.6175,2.6179,2.6188,2.6193,2.6189,2.6188,2.6186,2.612,2.6191,2.6189,2.6188,2.6059,2.6056,2.6053,0,0,0,0,0,0,2.616,2.6157,2.6136,2.615,2.6148,2.617,2.616,2.6165,2.6161,2.6177,2.6181,2.618,2.6191,2.6188,2.6154,2.6121,2.6188,2.6187,2.6061,2.6058,2.6055,2.5988,0,0,0,0,0,0,2.616,2.6156,2.6137,2.6149,2.6147,2.6105,2.6158,2.6164,2.6158,2.6163,2.617,2.6173,2.6192,2.6157,2.6152,2.6119,2.6185,2.6064,2.606,2.6056,2.5993,2.5983,2.5974,0,0,0,0,0,2.6161,2.6117,2.6135,2.6132,2.6123,2.6103,2.6102,2.6126,2.6155,2.6134,2.6145,2.6173,2.6126,2.6153,2.6148,2.6114,2.6067,2.6061,2.6056,2.5998,2.5985,2.5974,0,0,0,0,0,0,2.6099,2.6119,2.614,2.6098,2.6099,2.6113,2.6088,2.6112,2.6104,2.6109,2.6139,2.614,2.61,2.6104,2.6134,2.606,2.6101,2.6094,2.6058,2.6046,2.6037,2.6035,2.6183,0,0,0,0,0,2.608,2.6064,2.6083,2.6044,2.6044,2.6065,2.6058,2.6077,2.6078,2.6078,2.6086,2.6085,2.607,2.6059,2.6046,2.5996,2.5996,2.597,2.596,2.5952,2.5945,2.5916,2.5904,2.6036,2.6036,2.6036,0,0,2.6041,2.6051,2.6038,2.6032,2.6034,2.6015,2.6065,2.6043,2.6028,2.6074,2.6042,2.6048,2.6048,2.6005,2.5986,2.6007,2.5909,2.5945,2.5939,2.5936,2.591,2.5897,2.5886,2.6032,2.6033,2.6033,0,0,2.596,2.5967,2.5935,2.5937,2.5941,2.5956,2.5948,2.5959,2.5965,2.5934,2.5967,2.5949,2.5923,2.5922,2.5917,2.5836,2.586,2.5831,2.5779,2.5751,2.574,2.5731,2.5699,2.5688,2.5825,2.5825,2.5824,0,2.5911,2.5885,2.5915,2.589,2.5885,2.5928,2.5894,2.5894,2.5893,2.5888,2.5912,2.5879,2.5883,2.5839,2.5819,2.5815,2.5805,2.5829,2.574,2.5731,2.5723,2.5693,2.5681,2.5821,2.5821,2.5822,2.5822,0,2.5822,2.5804,2.5777,2.5776,2.5769,2.574,2.5764,2.5752,2.5772,2.5784,2.575,2.5756,2.5744,2.5736,2.5755,2.5694,2.5707,2.5735,2.5776,2.5706,2.5678,2.5667,2.5815,2.5817,2.5818,2.5819,0,0,2.5699,2.5717,2.5706,2.5705,2.5713,2.5698,2.5671,2.5661,2.5649,2.5648,2.5624,2.5601,2.5627,2.5622,2.5641,2.5617,2.5549,2.5648,2.5648,2.5626,2.5479,2.5456,2.5442,2.5567,2.5565,2.5563,2.5478,0,2.5619,2.5574,2.5601,2.5551,2.5533,2.5573,2.5549,2.555,2.5561,2.5546,2.5557,2.554,2.5577,2.5574,2.5552,2.5562,2.5519,2.5569,2.5541,2.554,2.5537,2.5428,2.5404,2.5324,2.5468,2.5466,2.5465,0,2.5519,2.5514,2.5463,2.5473,2.5467,2.5444,2.5437,2.5423,2.5425,2.5434,2.5429,2.5454,2.5426,2.5469,2.5429,2.5462,2.5453,2.5456,2.5453,2.5449,2.5496,2.5418,2.5299,2.5286,2.5449,2.545,2.5451,0,2.5431,2.5412,2.5378,2.5377,2.5389,2.5372,2.5376,2.538,2.5372,2.5366,2.536,2.535,2.5343,2.5334,2.5354,2.5384,2.5311,2.5356,2.5315,2.5314,2.5295,2.5296,2.517,2.5294,2.5295,2.5295,2.5295,0,2.5337,2.5303,2.5338,2.5317,2.528,2.5311,2.5273,2.5281,2.5285,2.5264,2.53,2.5279,2.531,2.5292,2.5308,2.5271,2.5269,2.5273,2.5277,2.5269,2.5267,2.5261,2.5265,2.5292,2.5292,2.5293,2.5294,0,2.5231,2.5254,2.5219,2.5234,2.5237,2.5209,2.5221,2.5201,2.5215,2.5189,2.5185,2.5205,2.5187,2.5207,2.519,2.5201,2.515,2.5164,2.5149,2.5152,2.5109,2.5112,2.4972,2.4954,2.5093,2.5091,2.509,0,2.5168,2.5143,2.5156,2.5146,2.5148,2.5131,2.5124,2.5153,2.5143,2.5143,2.5122,2.5107,2.5096,2.5064,2.5076,2.5062,2.5074,2.5026,2.5072,2.5063,2.507,2.507,2.5066,2.5015,2.5014,2.5012,2.5011,0,2.5052,2.5065,2.5054,2.5046,2.5036,2.5031,2.5028,2.5017,2.5048,2.5035,2.5017,2.5008,2.4991,2.4974,2.4964,2.4967,2.4992,2.4997,2.4987,2.4976,2.4967,2.4968,2.5121,2.5,2.5001,2.5002,2.5002,2.5003,2.4964,2.4943,2.4949,2.4935,2.4936,2.4933,2.4915,2.4927,2.4913,2.4902,2.492,2.4896,2.4898,2.4888,2.4887,2.4868,2.4888,2.4873,2.4869,2.4864,2.4856,2.4973,2.4866,2.4867,2.4867,2.4867,2.4868,0,2.4848,2.4854,2.4841,2.4837,2.4825,2.4854,2.4852,2.484,2.4819,2.4819,2.4808,2.4786,2.4771,2.4782,2.4768,2.475,2.4762,2.4745,2.4745,2.4745,2.484,2.485,2.4736,2.4736,2.4736,2.4736,2.4736,2.4736,2.4786,2.4752,2.4765,2.4731,2.4738,2.4716,2.4712,2.4709,2.4709,2.4684,2.4671,2.468,2.4684,2.467,2.4656,2.466,2.4652,2.463,2.4638,2.4726,2.4738,2.4751,2.4759,2.4629,2.4629,2.4544,2.4543,2.4542]}]]